Regional Weather Roundup
Issued by NWS

Home | Current Version | Previous Version | Graphics & Text | Print | Product List | Glossary On
Versions: 1 2 3 4 5 6 7 8 9 10 11 12 13 14 15 16 17 18 19 20 21 22 23 24 25 26 27 28 29 30 31 32 33 34 35 36 37 38 39 40 41 42 43 44 45 46 47 48 49 50
476
ASUS43 KDMX 241701
RWRIA

WEATHER ROUNDUP FOR IOWA
NATIONAL WEATHER SERVICE DES MOINES IA
1200 PM CDT SAT JUN 24 2017

NOTE: "FAIR" INDICATES FEW OR NO CLOUDS BELOW 12,000 FEET WITH NO
SIGNIFICANT WEATHER AND/OR OBSTRUCTIONS TO VISIBILITY.

* - THESE STATIONS ARE NOT NWS STATIONS...THUS NOT UNDER NWS
QUALITY CONTROL.  THEY ALSO DO NOT REPORT WEATHER SUCH
AS PRECIPITATION OR FOG.

IAZ001>003-012>014-020>022-031>034-043>046-241800-
   NORTHWEST IOWA

CITY           SKY/WX    TMP DP  RH WIND       PRES   REMARKS
CARROLL *      SUNNY     72  41  33 NW15G24   30.15S
CHEROKEE *     SUNNY     71  42  35 W16G24    30.12F
DENISON *      SUNNY     72  41  33 W14G22    30.17S
LE MARS *      SUNNY     72  41  33 NW15G24   30.13S
ORANGE CITY *  SUNNY     70  43  37 W18G33    30.11F
SHELDON *      SUNNY     72  39  30 W22G29    30.09S
SIOUX CITY     PTSUNNY   73  37  27 W20G29    30.13F
SPENCER        SUNNY     72  40  31 W17G36    30.09F
STORM LAKE *   SUNNY     70  39  32 W18G28    30.13S
$$

IAZ055>058-069>071-079>083-090>094-241800-
   SOUTHWEST IOWA

CITY           SKY/WX    TMP DP  RH WIND       PRES   REMARKS
ATLANTIC *     SUNNY     72  43  35 W10       30.18S
AUDUBON *      SUNNY     72  43  35 W8        30.18S
CLARINDA *     SUNNY     72  45  37 W7G18     30.23S
COUNCIL BLFS * SUNNY     73  43  33 W13G20    30.18F
CRESTON *      SUNNY     72  41  33 W12G17    30.21S
HARLAN  *      SUNNY     72  45  37 W15       30.21S
LAMONI         SUNNY     72  43  35 NW12G20   30.20R
RED OAK *      SUNNY     73  45  35 W12G18    30.20S
SHENANDOAH *   SUNNY     73  45  35 W10G20    30.22S
$$

IAZ047>049-059>061-072>074-084-241800-
   CENTRAL IOWA

CITY           SKY/WX    TMP DP  RH WIND       PRES   REMARKS
AMES           SUNNY     71  41  33 NW15G21   30.14R
ANKENY *       SUNNY     70  43  37 W15G22    30.17R
BOONE *        SUNNY     70  41  35 W9G21     30.13S
CHARITON *     SUNNY     72  41  33 NW13      30.17S
DES MOINES     MOSUNNY   72  38  29 NW14      30.16R
GRINNELL*      SUNNY     68  39  34 NW15G22   30.16R
KNOXVILLE *    SUNNY     70  37  30 NW12G20   30.16R
MARSHALLTOWN   SUNNY     69  42  37 NW16      30.12R
NEWTON *       SUNNY     70  41  35 NW12      30.15R
PELLA *        SUNNY     71  38  30 W13       30.18R
PERRY *          N/A     71  38  30 NW13G28   30.16R
$$

IAZ004>006-015-016-023>025-035-036-241800-
   NORTH CENTRAL IOWA

CITY           SKY/WX    TMP DP  RH WIND       PRES   REMARKS
ALGONA *       SUNNY     68  39  34 W15G23    30.10S
CLARION *        N/A     68  41  37 NW16G23   30.11S
ESTHERVILLE    MOSUNNY   67  44  43 W14G21    30.07F
FORT DODGE *   SUNNY     70  43  37 NW10G17   30.13S
MASON CITY     SUNNY     66  40  38 NW16G25   30.10S
FOREST CITY *    N/A     68  30  24 W16G23    30.09S
WEBSTER CITY * SUNNY     70  41  35 W15G22    30.10S
IOWA FALLS *     N/A     68  41  37 NW13G20   30.12S
$$

IAZ007>011-017>019-026>030-037>042-050>054-066-241800-
   NORTHEAST IOWA

CITY           SKY/WX    TMP DP  RH WIND       PRES   REMARKS
CEDAR RAPIDS   SUNNY     69  47  45 NW22      30.10R
CHARLES CITY * SUNNY     66  41  39 NW17G24   30.09S
CLINTON *      MOSUNNY   69  48  47 W21G30    30.07R
DECORAH *      SUNNY     64  39  39 NW14G31   30.05S
DUBUQUE        MOSUNNY   66  43  43 W16G30    30.06R
MONTICELLO *   SUNNY     66  45  45 W21       30.08R
OELWEIN *      SUNNY     64  45  48 NW17G26   30.09S
WATERLOO       SUNNY     68  40  35 NW17G23   30.08S
$$

IAZ064-065-067-068-078-241800-
   EAST CENTRAL IOWA

CITY           SKY/WX    TMP DP  RH WIND       PRES   REMARKS
DAVENPORT      SUNNY     68  44  42 W17G30    30.09R
IOWA CITY      SUNNY     71  43  36 W18G25    30.12R
MT. PLEASANT * SUNNY     70  40  33 W14G23    30.14R
MUSCATINE *    SUNNY     72  41  33 NW13G23   30.12R
QUAD CITIES    SUNNY     71  43  36 W20G26    30.09R
$$

IAZ062-063-075>077-085>089-095>099-241800-
   SOUTHEAST IOWA

CITY           SKY/WX    TMP DP  RH WIND       PRES   REMARKS
BURLINGTON     MOSUNNY   71  46  40 W16       30.13R
FAIRFIELD *    SUNNY     72  39  30 W18       30.14R
FORT MADISON * SUNNY     72  43  35 W14G22    30.15R
KEOKUK *       MOSUNNY   72  46  40 W8G21     30.14S
OSKALOOSA *      N/A     70  41  34 W14       30.17R
OTTUMWA        SUNNY     72  41  32 W14G21    30.15R
WASHINGTON *   SUNNY     72  41  33 NW21      30.14S
$$

ABBREVIATIONS USED IN REMARKS
   TC - TEMPERATURES IN CELSIUS
  WCI - WIND CHILL INDEX
   HX - HEAT INDEX
  VSB - VISIBILITY
$$





USA.gov is the U.S. government's official web portal to all federal, state and local government web resources and services.